Погода в Петрозаводске

Погода в Петрозаводске : погода сейчас, прогноз погоды и архив. Всё, что Вы хотите узнать о погоде в Петрозаводске!

Хотите узнать прогноз погоды в Петрозаводске? Тогда Вам сюда: Погода в Петрозаводске

Поиск расширенной информации на нашем сайте:

Другие новости

Новости СМИ2

Главная страница сайта

Новости сайта

02.10.2013

Напоминаем, что на нашем новом сайте вы можете получить высокодетализированные прогнозы погоды по пунктам России, СНГ и мира (включающие важные для авиации метеовеличины, такие как направление и скорость ветра, видимость, явления погоды, количество и форма облачности, нижняя и верхняя граница облачности), а также ознакомиться с разнообразными материалами по авиационной метеорологии и подборкой полезных ссылок на эту тему.

Сайт Метеоцентр.Азия посвящён разработке технологий оптимизации авиаметеорологического обслуживания, включая проектирование и перспективное создание нескольких автоматизированных авиаметеорологических систем:
- система выпуска высокодетальных прогностических карт явлений погоды для нижнего воздушного пространства по России и ближнему зарубежью;
- система верификации прогнозов TAF (выпускаемых синоптиками официальных АМСГ РФ и ближнего зарубежья) и AUTOTAF (выпускаемых сайтом Метеоцентр.Азия) - выявление ошибок, онлайн-сопоставление с фактической погодой METAR, автоматическое внесение коррективов в прогнозы при резком отклонении фактической погоды от прогноза, подсчёт оправдываемости прогнозов по элементам и в целом;
- система обработки, анализа и отображения авиаметеорологической информации для применения провайдерами метеорологической информации.

Рекомендуем: консультация юриста бесплатно круглосуточно консультация юриста бесплатно круглосуточно онлайн

Погода в Петрозаводске - сегодня

Время (UTC), дата Ветер
(°,м/с) 
Видим.   Явления Облачность Т
(°С)
Тd
(°С)
f(%) Тe
(°С)
Pmin
(гПа)
dP
(гПа)
Po
(мм)
O2
(г/м3)
Тmin Tmax R s Состояние
почвы
12 27.04.17 260 (З) 4{19}  12000 м  слаб. ливневой снег  10/10 400 м кучево-дожд. 
[Cb cap]
+1.9 +0.3 89 1007  2.5  745  298           
15 27.04.17 240 (ЮЗ) 6-10{15}  20000 м  {ливн. осадки}  4/3 300 м средняя 
[Sc|Ac trans]
+4.6 -0.6 69 +2  1008.6  1.6  746  296           
18 27.04.17 250 (З) 4{11}  50000 м  {ливн. осадки}  3/0 средняя 
[Ac trans]
+3.5 -2.3 66 +2  1010.2  1.5  747  298    +6.4  0.0     
21 27.04.17 250 (З) 50000 м    3/0 средняя 
[Ac trans]
+1.5 -2 78 -1  1011.9  1.5  749  300           
00 28.04.17 240 (ЮЗ) 50000 м    ясно 
-0.2 -2.1 87 -2  1013.7  1.7  750  303           
03 28.04.17 250 (З) 20000 м    3/0 средняя 
[Ac trans]
+0.1 -1.3 90 -2  1015.8  751  303  -0.7         
06 28.04.17 270 (З) 20000 м    1/1 300 м 
[Cu hum]
+3.4 -1.9 68 +1  1018.2  2.5  753  300  -0.7      мокрый или
старый снег
10-40% 
09 28.04.17 300 (СЗ) 5{10}  20000 м    4/4 300 м 
+5.7 -2.7 55 +4  1020.6  2.5  755  298           
12 28.04.17 350 (С) 20000 м    3/3 300 м 
[Sc]
+5.7 -2.9 54 +5  1023.5  2.8  757  299           
15 28.04.17 030 (СВ) 20000 м    3/3 300 м 
[Sc]
+4.5 -4.4 52 +3  1025.9  2.3  759  301           
18 28.04.17 050 (СВ) 50000 м    6/4 600 м верхняя 
[Sc|Ci fib]
+1.2 -4.4 66 1028.6  2.5  761  306    +6.5       
21 28.04.17 080 (В) 50000 м    3/0 верхняя 
[Ci fib]
-1.9 -4.6 82 -3  1029.8  762  310           
00 29.04.17 080 (В) 50000 м    9/6 300 м средняя 
[Sc|Ac trans]
-0.7 -4.1 78 -3  1030.5  0.7  762  308           
03 29.04.17 090 (В) 20000 м    10/3 600 м средняя 
[Sc|Ac und]
-0.2 -5 70 -3  1030.6  0.1  762  308  -2         
06 29.04.17 090 (В) 6-10{11}  35000 м    6/3 600 м средняя, верхняя 
[Sc|Ac trans|Ci fib]
+1.3 -5.2 62 -2  1030.4  0.1  762  306  -2         
09 29.04.17 090 (В) 6{12}  20000 м    10/0 средняя 
[Ac As]
+2.2 -5.1 58 -1  1029.5  -0.8  762  305           
12 29.04.17 080 (В) 5{12}  50000 м    10/0 средняя 
[As op]
+3.7 -4.1 57 +1  1027.9  -1.5  760  303           
15 29.04.17 100 (В) 7-12{12}  4000 м  слаб. снег  10/8 270 м средняя 
[Sc|As op]
+1 -1.3 85 -3  1026.2  -1.8  759  305      0.0     
18 29.04.17 100 (В) 9-15{15}  2100 м  снег  10/9 120 м средняя 
[Frnb|As op]
-0.2 -0.5 98 -5  1023.3  -2.9  757  305    +3.8     
21 29.04.17 100 (В) 5-10{15}  4000 м  слаб. снег  10/9 180 м средняя 
[Frnb|As op]
-0.1 -0.3 99 -3  1021.8  -1.5  756  305           
00 30.04.17 110 (В) 7-11{12}  12000 м  {снег, дождь}  10/9 120 м средняя 
[Frnb|As op]
+0.5 +0.3 99 -3  1019.7  -2.1  754  303           
03 30.04.17 110 (В) 6{12}  20000 м    10/10 330 м 
[Sc]
+0.9 +0.7 99 -2  1019.3  -0.4  754  303  -0.2       
06 30.04.17 090 (В) 0900 м  слаб. дождь{туман}  10/8 210 м средняя 
[Sc|As op]
+1.1 +0.9 99 1019  -0.3  754  302  -0.2    мокрый или
старый снег
10-40% 
09 30.04.17 080 (В) 0300 м  туман{дождь}  ?/?  
+1 +0.8 99 1019.4  0.5  754  303           
12 30.04.17 080 (В) 0700 м  туман{дождь}  ?/?  
+2.6 +2.4 99 +3  1020  0.6  755  301           
Время (UTC), дата Ветер
(°,м/с) 
Видим.   Явления Облачность Т
(°С)
Тd
(°С)
f(%) Тe
(°С)
Pmin
(гПа)
dP
(гПа)
Po
(мм)
O2
(г/м3)
Тmin Tmax R s Состояние
почвы

Для получения пояснительной информации подведите курсор к названию столбца.

ПОГОДА в Петрозаводске - архив

Всё, что Вы хотите узнать о погоде в Петрозаводске - удобно и подробно!

Выберите нужную дату (начиная с 1 января 2015* года) и нажмите кнопку "Найти".
Будут отображены архивные сводки погоды по пункту Петрозаводск, начиная с указанной даты.


Отображать данные в формате CSV (для использования в таблицах Excel)


Внимание! Наш архив погоды предназначен исключительно для личного некоммерческого использования в познавательных целях. Если Вам необходимы официальные справки о состоянии погоды (для производственных, юридических, коммерческих и т.п. целей), обращайтесь в органы Росгидромета.

*Примечание: данная дата относится к архиву по метеостанциям СССР (Россия, СНГ, Балтия).
Архив по метеостанциям Зарубежной Европы и Азии (кроме Китая) хранится 10 дней, по другим регионам земного шара (Китай, Африка, Америка, Австралия, Океания) - 1 день.

Петрозаводск - район местоположения метеостанции


Название, широта, долгота, высота метеостанции:
Петрозаводск 61.8°ш. 34.3°д. 110 м над ур. моря [Российская Федерация]

Дополнительная информация

В oтличие oт бoльшинства пoгoдных сайтoв мы публикуем пoдрoбную метеoинфoрмацию в детальнoм прoфессиoнальнoм фoрмате.

Характеристики температуры и влажнoсти вoздуха измеряются на высoте 2 м в тени вдали oт зданий и деревьев.
Скoрoсть ветра измеряется на высoте 10 м (на урoвне рoста челoвека скoрoсть ветра ниже в 1.5-2 раза). Если метеoстанция нахoдится в гoрoде или в лесу, тo скoрoсть ветра занижена на 2-4 м/с пo сравнению с oткрытым местoм. Скoрoсть ветра над акватoриями крупных рек и oзёр, а также на вершинах хoлмoв на 2-5 м/с выше, чем в oбычных услoвиях.
Атмoсфернoе давление в разных тoчках местнoсти мoжет значительнo oтличаться oт давления на метеoстанции, в зависимoсти oт услoвий рельефа (при пoдъёме на 10 м давление пoнижается примернo на 1 мм рт.ст.).